Regional Weather Roundup
Issued by NWS

Home | Current Version | Previous Version | Graphics & Text | Print | Product List | Glossary On
Versions: 1 2 3 4 5 6 7 8 9 10 11 12 13 14 15 16 17 18 19 20 21 22 23 24 25 26 27 28 29 30 31 32 33 34 35 36 37 38 39 40 41 42 43 44 45 46 47 48 49 50
000
ASUS43 KOAX 021610
RWRNE

WEATHER ROUNDUP FOR NEBRASKA
NATIONAL WEATHER SERVICE OMAHA NE
1100 AM CDT SUN AUG 02 2015

NOTES: SATELLITE DATA IS BEING USED TO AUGMENT CLOUD COVER ABOVE
       12000 FEET.
       "FAIR" INDICATES FEW OR NO CLOUDS BELOW 12,000 FEET WITH NO
       SIGNIFICANT WEATHER AND/OR OBSTRUCTIONS TO VISIBILITY.

  * THESE STATIONS DO NOT REPORT WEATHER SUCH AS RAIN...SNOW OR FOG.

NEZ001>004-019>022-054>056-021700-
NEBRASKA PANHANDLE

CITY           SKY/WX    TMP DP  RH WIND       PRES   REMARKS
SCOTTSBLUFF    SUNNY     80  58  46 NW5       30.02S
ALLIANCE       SUNNY     82  59  45 W5        30.01S
CHADRON        SUNNY     83  57  41 N6        29.98S
KIMBALL        SUNNY     80  55  42 CALM      30.06F
SIDNEY         SUNNY     83  60  45 CALM      30.04S
$$

NEZ057>060-069>072-079>082-021700-
SOUTHWEST NEBRASKA

CITY           SKY/WX    TMP DP  RH WIND       PRES   REMARKS
NORTH PLATTE   SUNNY     83  65  54 S3        29.94F
IMPERIAL       MOSUNNY   84  66  54 SE5       29.98F
LEXINGTON      SUNNY     86  71  60 SW6       29.94F HX  91
MCCOOK         SUNNY     86  69  56 CALM      29.94F HX  90
OGALLALA       SUNNY     78  64  61 CALM      29.98F
$$

NEZ005>010-023>029-035>040-094-021700-
NORTH CENTRAL NEBRASKA

CITY           SKY/WX    TMP DP  RH WIND       PRES   REMARKS
AINSWORTH      SUNNY     83  59  44 NW8       29.91S
BROKEN BOW     SUNNY     86  66  51 SW7       29.93S
O`NEILL        SUNNY     84  64  49 NW13      29.88R
ORD            SUNNY     85  69  58 W9        29.88S
THEDFORD       SUNNY     84  64  51 NW6       29.94F
$$

NEZ041-046>049-061>064-073>077-083>087-021700-
SOUTH CENTRAL NEBRASKA

CITY           SKY/WX    TMP DP  RH WIND       PRES   REMARKS
GRAND ISLAND   SUNNY     86  71  60 W14       29.90S HX  91
AURORA         SUNNY     83  74  73 W12       29.89S HX  90
HASTINGS       SUNNY     83  71  67 SW8       29.92S
HEBRON         SUNNY     85  71  63 SW8       29.89F HX  90
HOLDREGE       SUNNY     84  69  60 W8        29.94S
KEARNEY *      SUNNY     84  70  61 W13       29.92F
YORK           SUNNY     82  75  78 W9        29.88S
$$

NEZ011>018-030>034-042>045-021700-
NORTHEAST NEBRASKA

CITY           SKY/WX    TMP DP  RH WIND       PRES   REMARKS
NORFOLK        SUNNY     84  67  56 W7        29.84F
ALBION         SUNNY     82  67  59 SW7       29.87S
BLAIR          SUNNY     82  71  69 SW15      29.85S
COLUMBUS *     SUNNY     84  68  58 SW6       29.85F
FREMONT        SUNNY     85  71  62 SW7       29.85F HX  91
TEKAMAH        SUNNY     84  72  67 SW12      29.82S
WAYNE          SUNNY     83  66  57 W6        29.84F
$$

NEZ050>053-065>068-078-088>093-021700-
SOUTHEAST NEBRASKA

CITY           SKY/WX    TMP DP  RH WIND       PRES   REMARKS
LINCOLN        SUNNY     87  72  60 SW13      29.87F HX  93
OMAHA EPPLEY   MOSUNNY   88  72  58 SW8       29.84F HX  94
BEATRICE       SUNNY     84  73  68 SW9       29.89F HX  91
FALLS CITY     MOSUNNY   84  74  71 SW14      29.89F HX  91
NEBRASKA CITY  SUNNY     82  74  75 SW13      29.87F
PLATTSMOUTH    SUNNY     83  74  74 SW9       29.86F HX  91
$$

NEZ044-045-051>053-067-021700-
OMAHA AREA

CITY           SKY/WX    TMP DP  RH WIND       PRES   REMARKS
OMAHA EPPLEY   MOSUNNY   88  72  58 SW8       29.84F HX  94
BLAIR          SUNNY     82  71  69 SW15      29.85S
FREMONT        SUNNY     85  71  62 SW7       29.85F HX  91
MILLARD        SUNNY     86  73  64 SW12G18   29.85S HX  92
OFFUTT AFB     SUNNY     86  74  66 SW9       29.84F HX  94
PLATTSMOUTH    SUNNY     83  74  74 SW9       29.86F HX  91
WAHOO          FAIR      85  71  63 W13G18    29.85S
$$



USA.gov is the U.S. government's official web portal to all federal, state and local government web resources and services.